Location: Burzi?i
(45.0869°N, 16.0577°E)
Time: 12:09:46
(UTC+00:00)

SeaSat 1 - Pass Details

Date: 29 October 2020
Orbit: 744 x 747 km, 108.0° (Epoch: 28 November)

Event Time Altitude Azimuth Distance (km) Brightness Sun altitude
Exits shadow 16:20:49 - 66° (ENE) 2,495 4.5 -6.5°
Reaches altitude 10° 16:22:21 10° 50° (NE) 2,270 4.4 -6.7°
Maximum altitude 16:23:28 11° 37° (NE) 2,220 4.5 -6.9°
Drops below altitude 10° 16:24:36 10° 24° (NNE) 2,273 4.6 -7.1°
Sets 16:28:50 0° 348° (NNW) 3,202 5.7 -7.9°
